Location: Cambridge
(43.3830°N, 80.3170°W)
Time: 13:18:32
(UTC-05:00)

Envisat - Pass Details

Date: 28 October 2019
Orbit: 764 x 766 km, 98.1° (Epoch: 20 November)

Event Time Altitude Azimuth Distance (km) Brightness Sun altitude
Rises 20:12:07 0° 193° (SSW) 3,218 6.4 -21.2°
Reaches altitude 10° 20:14:40 10° 204° (SSW) 2,297 5.7 -21.7°
Maximum altitude 20:19:06 30° 265° (W) 1,349 4.9 -22.5°
Drops below altitude 10° 20:23:33 10° 326° (NW) 2,311 5.9 -23.3°
Sets 20:26:08 0° 337° (NNW) 3,242 6.6 -23.8°
